TimeHST,TemperatureF,Dew PointF,Humidity,Sea Level PressureIn,VisibilityMPH,Wind Direction,Wind SpeedMPH,Gust SpeedMPH,PrecipitationIn,Events,Conditions,WindDirDegrees,DateUTC
12:54 AM,69.1,64.9,87,30.04,10.0,East,3.5,-,N/A,,Partly Cloudy,80,2013-01-03 10:54:00
1:54 AM,68.0,64.9,90,30.02,10.0,NE,11.5,-,N/A,,Scattered Clouds,40,2013-01-03 11:54:00
2:54 AM,68.0,64.9,90,30.01,10.0,NE,4.6,-,N/A,,Mostly Cloudy,50,2013-01-03 12:54:00
3:54 AM,70.0,66.9,90,30.00,10.0,ENE,9.2,-,N/A,,Scattered Clouds,70,2013-01-03 13:54:00
4:54 AM,69.1,66.0,90,30.01,10.0,NE,13.8,21.9,0.00,,Scattered Clouds,50,2013-01-03 14:54:00
5:54 AM,70.0,66.0,87,30.01,10.0,NE,10.4,-,N/A,,Scattered Clouds,40,2013-01-03 15:54:00
6:54 AM,69.1,64.9,87,30.03,10.0,NE,10.4,-,N/A,,Scattered Clouds,40,2013-01-03 16:54:00
7:54 AM,72.0,66.9,84,30.04,10.0,NE,17.3,-,N/A,,Partly Cloudy,50,2013-01-03 17:54:00
8:54 AM,72.0,68.0,87,30.06,9.0,NE,18.4,21.9,0.00,Rain,Light Rain,40,2013-01-03 18:54:00
9:54 AM,75.0,69.1,82,30.07,10.0,NE,11.5,-,0.00,,Scattered Clouds,50,2013-01-03 19:54:00
10:54 AM,79.0,64.9,62,30.05,10.0,NE,13.8,20.7,N/A,,Scattered Clouds,40,2013-01-03 20:54:00
11:54 AM,78.1,66.9,68,30.04,10.0,NE,18.4,29.9,N/A,,Scattered Clouds,50,2013-01-03 21:54:00
12:54 PM,78.1,69.1,74,30.02,10.0,NE,25.3,31.1,N/A,,Mostly Cloudy,40,2013-01-03 22:54:00
1:54 PM,75.9,66.9,74,30.01,10.0,NE,19.6,25.3,0.00,,Scattered Clouds,40,2013-01-03 23:54:00
2:54 PM,73.9,68.0,82,30.01,10.0,NE,17.3,27.6,0.00,,Scattered Clouds,50,2013-01-04 00:54:00
3:54 PM,73.0,68.0,84,30.02,7.0,NE,20.7,28.8,0.00,,Scattered Clouds,50,2013-01-04 01:54:00
4:54 PM,71.1,66.9,87,30.04,10.0,NE,23.0,29.9,0.00,,Scattered Clouds,40,2013-01-04 02:54:00
5:54 PM,71.1,66.9,87,30.05,10.0,ENE,13.8,21.9,0.00,,Mostly Cloudy,60,2013-01-04 03:54:00
6:54 PM,69.1,66.9,93,30.07,7.0,NE,12.7,-,0.00,Rain,Light Rain,40,2013-01-04 04:54:00
7:46 PM,69.8,68.0,94,30.08,8.0,NE,21.9,33.4,0.06,Rain,Light Rain,50,2013-01-04 05:46:00
7:54 PM,69.1,66.0,90,30.10,8.0,NE,23.0,31.1,0.06,Rain,Light Rain,50,2013-01-04 05:54:00
8:50 PM,69.8,66.2,88,30.10,5.0,NE,17.3,25.3,0.02,Rain,Light Rain,50,2013-01-04 06:50:00
8:54 PM,69.1,66.9,93,30.12,4.0,NE,16.1,26.5,0.03,Rain,Heavy Rain,50,2013-01-04 06:54:00
9:01 PM,69.8,66.2,88,30.10,4.0,NE,13.8,24.2,0.03,Rain,Rain,50,2013-01-04 07:01:00
9:54 PM,69.1,66.0,90,30.12,5.0,NE,21.9,31.1,0.07,Rain,Light Rain,40,2013-01-04 07:54:00
10:16 PM,68.0,66.2,94,30.10,5.0,ENE,15.0,25.3,0.03,Rain,Light Rain,60,2013-01-04 08:16:00
10:54 PM,69.1,66.9,93,30.11,8.0,ENE,11.5,-,0.03,Rain,Light Rain,60,2013-01-04 08:54:00
11:54 PM,69.1,66.0,90,30.11,5.0,ENE,18.4,25.3,0.04,Rain,Rain,60,2013-01-04 09:54:00